GW6789 Weather Reports


time (UTC)temp
F
wind
direction
speed
knots
gust
knots
rain 1hr
in
rain 24hr
in
rain mn
in
humidity
%
barometer
mb
20260503212716 74 25 2.6 2.6 0.00 0.00 0.00 50 1012.0
20260503211711 74 2 2.6 4.3 0.00 0.00 0.00 50 1012.2
20260503210709 74 351 0.0 0.9 0.00 0.00 0.00 54 1012.1
20260503205707 73 28 3.5 5.2 0.00 0.00 0.00 52 1012.3
20260503204706 73 15 2.6 2.6 0.00 0.00 0.00 52 1012.3
20260503203701 72 53 1.7 1.7 0.00 0.00 0.00 53 1012.4
20260503202701 74 44 3.5 4.3 0.00 0.00 0.00 52 1012.6
20260503201657 74 23 0.9 1.7 0.00 0.00 0.00 53 1012.6
20260503200656 73 32 1.7 1.7 0.00 0.00 0.00 56 1012.9
20260503195656 72 13 3.5 4.3 0.00 0.00 0.00 56 1012.9
20260503194655 71 4 0.9 1.7 0.00 0.00 0.00 57 1012.9
20260503193653 72 341 1.7 2.6 0.00 0.00 0.00 55 1012.9
20260503192650 71 35 0.9 1.7 0.00 0.00 0.00 57 1013.3
20260503191649 72 30 2.6 4.3 0.00 0.00 0.00 54 1013.2
20260503190649 72 355 1.7 4.3 0.00 0.00 0.00 58 1013.3
20260503185648 71 358 1.7 2.6 0.00 0.00 0.00 56 1013.5
20260503184645 72 29 2.6 2.6 0.00 0.00 0.00 54 1013.7
20260503183643 70 16 4.3 6.1 0.00 0.00 0.00 53 1013.6
20260503182639 70 36 4.3 5.2 0.00 0.00 0.00 54 1013.7
20260503181634 70 26 4.3 6.1 0.00 0.00 0.00 53 1013.8
20260503180634 70 355 1.7 1.7 0.00 0.00 0.00 58 1014.1
20260503175634 69 9 4.3 6.1 0.00 0.00 0.00 60 1014.0
20260503174634 67 342 0.9 1.7 0.00 0.00 0.00 65 1014.0
20260503173632 66 44 1.7 1.7 0.00 0.00 0.00 63 1014.0
20260503172632 66 43 1.7 1.7 0.00 0.00 0.00 65 1014.1
20260503171631 65 47 0.0 0.0 0.00 0.00 0.00 67 1014.1
20260503170632 65 32 0.9 1.7 0.00 0.00 0.00 66 1014.5
20260503150617 63 35 1.7 4.3 0.00 0.00 0.00 70 1014.5
20260503130602 53 22 0.0 0.9 0.00 0.00 0.00 85 1013.9
20260503110533 56 45 0.0 0.0 0.00 0.00 0.00 76 1014.3
20260503081503 55 16 0.9 0.9 0.00 0.00 0.00 79 1014.4
20260503080502 55 27 0.0 0.0 0.00 0.00 0.00 79 1014.4
20260503072454 54 7 0.9 0.9 0.00 0.00 0.00 82 1014.3
20260503071453 54 29 0.0 0.0 0.00 0.00 0.00 81 1014.3
20260503070452 56 27 0.0 0.0 0.00 0.00 0.00 79 1014.0
20260503054424 57 8 0.9 0.9 0.00 0.00 0.00 77 1014.1
20260503053420 57 22 0.0 0.0 0.00 0.00 0.00 76 1014.2
20260503052419 56 352 0.9 0.9 0.00 0.00 0.00 77 1013.9
20260503051417 56 28 0.0 0.0 0.00 0.00 0.00 78 1013.8
20260503050416 56 25 0.0 0.9 0.00 0.00 0.00 77 1013.9
20260503045411 57 23 0.0 0.9 0.00 0.00 0.00 76 1013.9
20260503044410 57 26 0.0 0.0 0.00 0.00 0.00 74 1013.8
20260503043410 58 13 0.9 0.9 0.00 0.00 0.00 73 1013.6
20260503042409 58 26 0.0 0.0 0.00 0.00 0.00 72 1013.6
20260503041408 58 26 0.0 0.0 0.00 0.00 0.00 72 1013.7
20260503040403 59 24 0.0 0.0 0.00 0.00 0.00 70 1013.7
20260503035402 60 10 0.9 0.9 0.00 0.00 0.00 69 1013.6
20260503034357 60 24 0.9 1.7 0.00 0.00 0.00 69 1013.5
20260503033357 61 25 0.0 0.0 0.00 0.00 0.00 68 1013.3
20260503032354 62 20 0.0 0.0 0.00 0.00 0.00 65 1013.3
20260503031349 62 38 0.0 0.0 0.00 0.00 0.00 66 1013.1
20260503030347 62 31 0.0 0.0 0.00 0.00 0.00 65 1013.0
20260503025347 63 35 0.0 0.0 0.00 0.00 0.00 64 1013.1
20260503024346 63 63 0.0 0.9 0.00 0.00 0.00 64 1013.2
20260503023346 64 39 0.0 0.0 0.00 0.00 0.00 63 1013.1
20260503022343 64 29 0.9 0.9 0.00 0.00 0.00 63 1012.9
20260503021342 64 97 0.0 1.7 0.00 0.00 0.00 62 1012.9
20260503020338 65 25 0.9 1.7 0.00 0.00 0.00 61 1013.0
20260503015337 66 50 0.9 0.9 0.00 0.00 0.00 61 1013.1
20260503014336 66 58 0.9 1.7 0.00 0.00 0.00 61 1013.3
20260503013336 66 29 0.0 0.9 0.00 0.00 0.00 59 1013.1
20260503012331 66 326 1.7 1.7 0.00 0.00 0.00 59 1013.3
20260503011330 67 37 0.0 0.9 0.00 0.00 0.00 59 1013.4
20260503010330 68 11 2.6 2.6 0.00 0.00 0.00 57 1013.7
20260503005330 69 26 2.6 2.6 0.00 0.00 0.00 56 1013.7
20260503004330 68 34 2.6 2.6 0.00 0.00 0.00 58 1013.8
20260503003330 69 303 2.6 2.6 0.00 0.00 0.00 58 1013.6
20260503002330 70 21 3.5 4.3 0.00 0.00 0.00 58 1013.7
20260503001328 70 40 1.7 2.6 0.00 0.00 0.00 57 1013.5
20260503000325 69 31 1.7 1.7 0.00 0.00 0.00 60 1013.9
20260502235323 69 122 0.0 0.9 0.00 0.00 0.00 59 1013.8
20260502234323 70 36 1.7 2.6 0.00 0.00 0.00 58 1014.2
20260502233322 70 13 0.9 1.7 0.00 0.00 0.00 60 1014.0
20260502232321 69 263 1.7 1.7 0.00 0.00 0.00 60 1014.4
20260502231321 69 119 1.7 1.7 0.00 0.00 0.00 60 1014.4
20260502230317 69 76 2.6 4.3 0.00 0.00 0.00 60 1014.3
20260502225316 69 63 0.9 1.7 0.00 0.00 0.00 60 1014.7
20260502224315 69 276 2.6 2.6 0.00 0.00 0.00 62 1015.0
20260502223311 69 2 3.5 4.3 0.00 0.00 0.00 63 1015.0
20260502222311 69 178 2.6 2.6 0.00 0.00 0.00 63 1015.0
20260502221309 69 24 0.9 0.9 0.00 0.00 0.00 63 1015.3
20260502220308 69 349 0.0 0.9 0.00 0.00 0.00 64 1015.4
20260502215308 68 30 2.6 4.3 0.00 0.00 0.00 63 1015.5
20260502214308 68 354 0.9 1.7 0.00 0.00 0.00 64 1015.4
20260502213308 67 25 2.6 4.3 0.00 0.00 0.00 65 1015.4